Time,TemperatureF,DewpointF,PressureIn,WindDirection,WindDirectionDegrees,WindSpeedMPH,WindSpeedGustMPH,Humidity,HourlyPrecipIn,Conditions,Clouds,dailyrainin,SolarRadiationWatts/m^2,SoftwareType,DateUTC
2013-03-18 00:03:00,67.0,62.0,-100.00,SSW,196,7.0,14.0,83,0.00,,,0.00,0.000000,,2013-03-18 05:03:00,
2013-03-18 00:12:00,67.0,62.0,-100.00,SSW,196,7.0,14.0,83,0.00,,,0.00,0.000000,,2013-03-18 05:12:00,
2013-03-18 00:22:00,67.0,62.0,-100.00,SSW,196,7.0,14.0,83,0.00,,,0.00,0.000000,,2013-03-18 05:22:00,
2013-03-18 00:32:00,66.0,62.0,-100.00,SSW,193,6.0,11.0,87,0.00,,,0.00,0.000000,,2013-03-18 05:32:00,
2013-03-18 00:52:00,66.0,62.0,-100.00,SSW,193,6.0,11.0,87,0.00,,,0.00,0.000000,,2013-03-18 05:52:00,
2013-03-18 01:02:00,66.0,62.0,-100.00,SSW,193,6.0,11.0,87,0.00,,,0.00,0.000000,,2013-03-18 06:02:00,
2013-03-18 01:12:00,66.0,62.0,-100.00,SSW,193,6.0,11.0,87,0.00,,,0.00,0.000000,,2013-03-18 06:12:00,
2013-03-18 01:22:00,66.0,62.0,-100.00,SSW,193,6.0,11.0,87,0.00,,,0.00,0.000000,,2013-03-18 06:22:00,
2013-03-18 01:32:00,66.0,62.0,-100.00,SSW,206,5.0,14.0,87,0.00,,,0.00,0.000000,,2013-03-18 06:32:00,
2013-03-18 01:52:00,66.0,62.0,-100.00,SSW,206,5.0,14.0,87,0.00,,,0.00,0.000000,,2013-03-18 06:52:00,
2013-03-18 02:02:00,66.0,62.0,-100.00,SSW,206,5.0,14.0,87,0.00,,,0.00,0.000000,,2013-03-18 07:02:00,
2013-03-18 02:12:00,66.0,62.0,-100.00,SSW,206,5.0,14.0,87,0.00,,,0.00,0.000000,,2013-03-18 07:12:00,
2013-03-18 02:22:00,66.0,62.0,-100.00,SSW,206,5.0,14.0,87,0.00,,,0.00,0.000000,,2013-03-18 07:22:00,
2013-03-18 02:32:00,65.0,62.0,-100.00,South,171,6.0,12.0,90,0.00,,,0.00,0.000000,,2013-03-18 07:32:00,
2013-03-18 02:53:00,65.0,62.0,-100.00,South,171,6.0,12.0,90,0.00,,,0.00,0.000000,,2013-03-18 07:53:00,
2013-03-18 03:02:00,65.0,62.0,-100.00,South,171,6.0,12.0,90,0.00,,,0.00,0.000000,,2013-03-18 08:02:00,
2013-03-18 03:12:00,65.0,62.0,-100.00,South,171,6.0,12.0,90,0.00,,,0.00,0.000000,,2013-03-18 08:12:00,
2013-03-18 03:22:00,65.0,62.0,-100.00,South,171,6.0,12.0,90,0.00,,,0.00,0.000000,,2013-03-18 08:22:00,
2013-03-18 03:32:00,66.0,63.0,-100.00,SSW,195,6.0,12.0,90,0.00,,,0.00,0.000000,,2013-03-18 08:32:00,
2013-03-18 03:53:00,66.0,63.0,-100.00,SSW,195,6.0,12.0,90,0.00,,,0.00,0.000000,,2013-03-18 08:53:00,
2013-03-18 04:02:00,66.0,63.0,-100.00,SSW,195,6.0,12.0,90,0.00,,,0.00,0.000000,,2013-03-18 09:02:00,
2013-03-18 04:12:00,66.0,63.0,-100.00,SSW,195,6.0,12.0,90,0.00,,,0.00,0.000000,,2013-03-18 09:12:00,
2013-03-18 04:22:00,66.0,63.0,-100.00,SSW,195,6.0,12.0,90,0.00,,,0.00,0.000000,,2013-03-18 09:22:00,
2013-03-18 04:32:00,66.0,63.0,-100.00,SSW,212,4.0,10.0,90,0.00,,,0.00,0.000000,,2013-03-18 09:32:00,
2013-03-18 04:53:00,66.0,63.0,-100.00,SSW,212,4.0,10.0,90,0.00,,,0.00,0.000000,,2013-03-18 09:53:00,
2013-03-18 05:03:00,66.0,63.0,-100.00,SSW,212,4.0,10.0,90,0.00,,,0.00,0.000000,,2013-03-18 10:03:00,
2013-03-18 05:12:00,66.0,63.0,-100.00,SSW,212,4.0,10.0,90,0.00,,,0.00,0.000000,,2013-03-18 10:12:00,
2013-03-18 05:23:00,66.0,63.0,-100.00,SSW,212,4.0,10.0,90,0.00,,,0.00,0.000000,,2013-03-18 10:23:00,
2013-03-18 05:32:00,66.0,63.0,-100.00,SSW,205,3.0,52.0,89,0.00,,,0.00,0.000000,,2013-03-18 10:32:00,
2013-03-18 05:53:00,66.0,63.0,-100.00,SSW,205,3.0,52.0,89,0.00,,,0.00,0.000000,,2013-03-18 10:53:00,
2013-03-18 06:03:00,66.0,63.0,-100.00,SSW,205,3.0,52.0,89,0.00,,,0.00,0.000000,,2013-03-18 11:03:00,
2013-03-18 06:13:00,66.0,63.0,-100.00,SSW,205,3.0,52.0,89,0.00,,,0.00,0.000000,,2013-03-18 11:13:00,
2013-03-18 06:22:00,66.0,63.0,-100.00,SSW,205,3.0,52.0,89,0.00,,,0.00,0.000000,,2013-03-18 11:22:00,
2013-03-18 06:32:00,66.0,62.0,-100.00,SSW,209,3.0,7.0,88,0.00,,,0.00,0.000000,,2013-03-18 11:32:00,
2013-03-18 06:52:00,66.0,62.0,-100.00,SSW,209,3.0,7.0,88,0.00,,,0.00,0.000000,,2013-03-18 11:52:00,
2013-03-18 07:02:00,66.0,62.0,-100.00,SSW,209,3.0,7.0,88,0.00,,,0.00,0.000000,,2013-03-18 12:02:00,
2013-03-18 07:12:00,66.0,62.0,-100.00,SSW,209,3.0,7.0,88,0.00,,,0.00,0.000000,,2013-03-18 12:12:00,
2013-03-18 07:22:00,66.0,62.0,-100.00,SSW,209,3.0,7.0,88,0.00,,,0.00,0.000000,,2013-03-18 12:22:00,
2013-03-18 07:32:00,65.0,62.0,-100.00,SSW,195,5.0,9.0,89,0.00,,,0.00,3.000000,,2013-03-18 12:32:00,
2013-03-18 07:52:00,65.0,62.0,-100.00,SSW,195,5.0,9.0,89,0.00,,,0.00,3.000000,,2013-03-18 12:52:00,
2013-03-18 08:02:00,65.0,62.0,-100.00,SSW,195,5.0,9.0,89,0.00,,,0.00,3.000000,,2013-03-18 13:02:00,
2013-03-18 08:12:00,65.0,62.0,-100.00,SSW,195,5.0,9.0,89,0.00,,,0.00,3.000000,,2013-03-18 13:12:00,
2013-03-18 08:22:00,65.0,62.0,-100.00,SSW,195,5.0,9.0,89,0.00,,,0.00,3.000000,,2013-03-18 13:22:00,
2013-03-18 08:32:00,67.0,62.0,-100.00,SSW,212,5.0,10.0,85,0.00,,,0.00,69.000000,,2013-03-18 13:32:00,
2013-03-18 08:52:00,67.0,62.0,-100.00,SSW,212,5.0,10.0,85,0.00,,,0.00,69.000000,,2013-03-18 13:52:00,
2013-03-18 09:02:00,67.0,62.0,-100.00,SSW,212,5.0,10.0,85,0.00,,,0.00,69.000000,,2013-03-18 14:02:00,
2013-03-18 09:12:00,67.0,62.0,-100.00,SSW,212,5.0,10.0,85,0.00,,,0.00,69.000000,,2013-03-18 14:12:00,
2013-03-18 09:22:00,67.0,62.0,-100.00,SSW,212,5.0,10.0,85,0.00,,,0.00,69.000000,,2013-03-18 14:22:00,
2013-03-18 09:32:00,70.0,63.0,-100.00,SW,218,8.0,15.0,79,0.00,,,0.00,199.000000,,2013-03-18 14:32:00,
2013-03-18 09:52:00,70.0,63.0,-100.00,SW,218,8.0,15.0,79,0.00,,,0.00,199.000000,,2013-03-18 14:52:00,
2013-03-18 10:02:00,70.0,63.0,-100.00,SW,218,8.0,15.0,79,0.00,,,0.00,199.000000,,2013-03-18 15:02:00,
2013-03-18 10:12:00,70.0,63.0,-100.00,SW,218,8.0,15.0,79,0.00,,,0.00,199.000000,,2013-03-18 15:12:00,
2013-03-18 10:22:00,70.0,63.0,-100.00,SW,218,8.0,15.0,79,0.00,,,0.00,199.000000,,2013-03-18 15:22:00,
2013-03-18 10:32:00,72.0,62.0,-100.00,SSW,212,9.0,20.0,72,0.00,,,0.00,329.000000,,2013-03-18 15:32:00,
2013-03-18 10:52:00,72.0,62.0,-100.00,SSW,212,9.0,20.0,72,0.00,,,0.00,329.000000,,2013-03-18 15:52:00,
2013-03-18 11:03:00,72.0,62.0,-100.00,SSW,212,9.0,20.0,72,0.00,,,0.00,329.000000,,2013-03-18 16:03:00,
2013-03-18 11:12:00,72.0,62.0,-100.00,SSW,212,9.0,20.0,72,0.00,,,0.00,329.000000,,2013-03-18 16:12:00,
2013-03-18 11:22:00,72.0,62.0,-100.00,SSW,212,9.0,20.0,72,0.00,,,0.00,329.000000,,2013-03-18 16:22:00,
2013-03-18 11:32:00,75.0,62.0,-100.00,SW,228,8.0,17.0,65,0.00,,,0.00,424.000000,,2013-03-18 16:32:00,
2013-03-18 11:53:00,75.0,62.0,-100.00,SW,228,8.0,17.0,65,0.00,,,0.00,424.000000,,2013-03-18 16:53:00,
2013-03-18 12:02:00,75.0,62.0,-100.00,SW,228,8.0,17.0,65,0.00,,,0.00,424.000000,,2013-03-18 17:02:00,
2013-03-18 12:12:00,75.0,62.0,-100.00,SW,228,8.0,17.0,65,0.00,,,0.00,424.000000,,2013-03-18 17:12:00,
2013-03-18 12:22:00,75.0,62.0,-100.00,SW,228,8.0,17.0,65,0.00,,,0.00,424.000000,,2013-03-18 17:22:00,
2013-03-18 12:32:00,78.0,62.0,-100.00,SW,218,11.0,22.0,57,0.00,,,0.00,640.000000,,2013-03-18 17:32:00,
2013-03-18 12:52:00,78.0,62.0,-100.00,SW,218,11.0,22.0,57,0.00,,,0.00,640.000000,,2013-03-18 17:52:00,
2013-03-18 13:02:00,78.0,62.0,-100.00,SW,218,11.0,22.0,57,0.00,,,0.00,640.000000,,2013-03-18 18:02:00,
2013-03-18 13:12:00,78.0,62.0,-100.00,SW,218,11.0,22.0,57,0.00,,,0.00,640.000000,,2013-03-18 18:12:00,
2013-03-18 13:22:00,78.0,62.0,-100.00,SW,218,11.0,22.0,57,0.00,,,0.00,640.000000,,2013-03-18 18:22:00,
2013-03-18 13:32:00,83.0,62.0,-100.00,SSW,202,8.0,21.0,50,0.00,,,0.00,872.000000,,2013-03-18 18:32:00,
2013-03-18 13:52:00,83.0,62.0,-100.00,SSW,202,8.0,21.0,50,0.00,,,0.00,872.000000,,2013-03-18 18:52:00,
2013-03-18 14:02:00,83.0,62.0,-100.00,SSW,202,8.0,21.0,50,0.00,,,0.00,872.000000,,2013-03-18 19:02:00,
2013-03-18 14:12:00,83.0,62.0,-100.00,SSW,202,8.0,21.0,50,0.00,,,0.00,872.000000,,2013-03-18 19:12:00,
2013-03-18 14:22:00,83.0,62.0,-100.00,SSW,202,8.0,21.0,50,0.00,,,0.00,872.000000,,2013-03-18 19:22:00,
2013-03-18 14:32:00,84.0,61.0,-100.00,WSW,254,7.0,19.0,46,0.00,,,0.00,830.000000,,2013-03-18 19:32:00,
2013-03-18 14:52:00,84.0,61.0,-100.00,WSW,254,7.0,19.0,46,0.00,,,0.00,830.000000,,2013-03-18 19:52:00,
2013-03-18 15:02:00,84.0,61.0,-100.00,WSW,254,7.0,19.0,46,0.00,,,0.00,830.000000,,2013-03-18 20:02:00,
2013-03-18 15:12:00,84.0,61.0,-100.00,WSW,254,7.0,19.0,46,0.00,,,0.00,830.000000,,2013-03-18 20:12:00,
2013-03-18 15:22:00,84.0,61.0,-100.00,WSW,254,7.0,19.0,46,0.00,,,0.00,830.000000,,2013-03-18 20:22:00,
2013-03-18 15:32:00,85.0,61.0,-100.00,WSW,238,5.0,15.0,44,0.00,,,0.00,635.000000,,2013-03-18 20:32:00,
2013-03-18 15:52:00,85.0,61.0,-100.00,WSW,238,5.0,15.0,44,0.00,,,0.00,635.000000,,2013-03-18 20:52:00,
2013-03-18 16:02:00,85.0,61.0,-100.00,WSW,238,5.0,15.0,44,0.00,,,0.00,635.000000,,2013-03-18 21:02:00,
2013-03-18 16:12:00,85.0,61.0,-100.00,WSW,238,5.0,15.0,44,0.00,,,0.00,635.000000,,2013-03-18 21:12:00,
2013-03-18 16:22:00,85.0,61.0,-100.00,WSW,238,5.0,15.0,44,0.00,,,0.00,635.000000,,2013-03-18 21:22:00,
2013-03-18 16:32:00,86.0,60.0,-100.00,SW,224,5.0,14.0,42,0.00,,,0.00,396.000000,,2013-03-18 21:32:00,
2013-03-18 16:53:00,86.0,60.0,-100.00,SW,224,5.0,14.0,42,0.00,,,0.00,396.000000,,2013-03-18 21:53:00,
2013-03-18 17:03:00,86.0,60.0,-100.00,SW,224,5.0,14.0,42,0.00,,,0.00,396.000000,,2013-03-18 22:03:00,
2013-03-18 17:13:00,86.0,60.0,-100.00,SW,224,5.0,14.0,42,0.00,,,0.00,396.000000,,2013-03-18 22:13:00,
2013-03-18 17:23:00,86.0,60.0,-100.00,SW,224,5.0,14.0,42,0.00,,,0.00,396.000000,,2013-03-18 22:23:00,
2013-03-18 17:32:00,83.0,59.0,-100.00,SW,226,0.0,18.0,45,0.00,,,0.00,225.000000,,2013-03-18 22:32:00,
2013-03-18 17:53:00,83.0,59.0,-100.00,SW,226,0.0,18.0,45,0.00,,,0.00,225.000000,,2013-03-18 22:53:00,
2013-03-18 18:03:00,83.0,59.0,-100.00,SW,226,0.0,18.0,45,0.00,,,0.00,225.000000,,2013-03-18 23:03:00,
2013-03-18 18:12:00,83.0,59.0,-100.00,SW,226,0.0,18.0,45,0.00,,,0.00,225.000000,,2013-03-18 23:12:00,
2013-03-18 18:22:00,83.0,59.0,-100.00,SW,226,0.0,18.0,45,0.00,,,0.00,225.000000,,2013-03-18 23:22:00,
2013-03-18 18:32:00,82.0,59.0,-100.00,NW,308,3.0,10.0,46,0.00,,,0.00,88.000000,,2013-03-18 23:32:00,
2013-03-18 18:53:00,82.0,59.0,-100.00,NW,308,3.0,10.0,46,0.00,,,0.00,88.000000,,2013-03-18 23:53:00,
2013-03-18 19:02:00,82.0,59.0,-100.00,NW,308,3.0,10.0,46,0.00,,,0.00,88.000000,,2013-03-19 00:02:00,
2013-03-18 19:12:00,82.0,59.0,-100.00,NW,308,3.0,10.0,46,0.00,,,0.00,88.000000,,2013-03-19 00:12:00,
2013-03-18 19:22:00,82.0,59.0,-100.00,NW,308,3.0,10.0,46,0.00,,,0.00,88.000000,,2013-03-19 00:22:00,
2013-03-18 19:32:00,78.0,59.0,-100.00,NNW,335,2.0,19.0,52,0.00,,,0.00,36.000000,,2013-03-19 00:32:00,
2013-03-18 19:52:00,78.0,59.0,-100.00,NNW,335,2.0,19.0,52,0.00,,,0.00,36.000000,,2013-03-19 00:52:00,
2013-03-18 20:02:00,78.0,59.0,-100.00,NNW,335,2.0,19.0,52,0.00,,,0.00,36.000000,,2013-03-19 01:02:00,
2013-03-18 20:12:00,78.0,59.0,-100.00,NNW,335,2.0,19.0,52,0.00,,,0.00,36.000000,,2013-03-19 01:12:00,
2013-03-18 20:22:00,78.0,59.0,-100.00,NNW,335,2.0,19.0,52,0.00,,,0.00,36.000000,,2013-03-19 01:22:00,
2013-03-18 20:32:00,72.0,58.0,-100.00,NE,37,7.0,15.0,62,0.00,,,0.00,0.000000,,2013-03-19 01:32:00,
2013-03-18 20:52:00,72.0,58.0,-100.00,NE,37,7.0,15.0,62,0.00,,,0.00,0.000000,,2013-03-19 01:52:00,
2013-03-18 21:02:00,72.0,58.0,-100.00,NE,37,7.0,15.0,62,0.00,,,0.00,0.000000,,2013-03-19 02:02:00,
2013-03-18 21:12:00,72.0,58.0,-100.00,NE,37,7.0,15.0,62,0.00,,,0.00,0.000000,,2013-03-19 02:12:00,
2013-03-18 21:22:00,72.0,58.0,-100.00,NE,37,7.0,15.0,62,0.00,,,0.00,0.000000,,2013-03-19 02:22:00,
2013-03-18 21:32:00,70.0,56.0,-100.00,NE,43,7.0,18.0,61,0.00,,,0.00,0.000000,,2013-03-19 02:32:00,
2013-03-18 21:53:00,70.0,56.0,-100.00,NE,43,7.0,18.0,61,0.00,,,0.00,0.000000,,2013-03-19 02:53:00,
2013-03-18 22:02:00,70.0,56.0,-100.00,NE,43,7.0,18.0,61,0.00,,,0.00,0.000000,,2013-03-19 03:02:00,
2013-03-18 22:12:00,70.0,56.0,-100.00,NE,43,7.0,18.0,61,0.00,,,0.00,0.000000,,2013-03-19 03:12:00,
2013-03-18 22:22:00,70.0,56.0,-100.00,NE,43,7.0,18.0,61,0.00,,,0.00,0.000000,,2013-03-19 03:22:00,
2013-03-18 22:32:00,66.0,51.0,-100.00,NE,44,6.0,18.0,58,0.00,,,0.00,0.000000,,2013-03-19 03:32:00,
2013-03-18 22:54:00,66.0,51.0,-100.00,NE,44,6.0,18.0,58,0.00,,,0.00,0.000000,,2013-03-19 03:54:00,
2013-03-18 23:03:00,66.0,51.0,-100.00,NE,44,6.0,18.0,58,0.00,,,0.00,0.000000,,2013-03-19 04:03:00,
2013-03-18 23:13:00,66.0,51.0,-100.00,NE,44,6.0,18.0,58,0.00,,,0.00,0.000000,,2013-03-19 04:13:00,
2013-03-18 23:23:00,66.0,51.0,-100.00,NE,44,6.0,18.0,58,0.00,,,0.00,0.000000,,2013-03-19 04:23:00,
2013-03-18 23:32:00,63.0,45.0,-100.00,NE,41,4.0,22.0,51,0.00,,,0.00,0.000000,,2013-03-19 04:32:00,
2013-03-18 23:53:00,63.0,45.0,-100.00,NE,41,4.0,22.0,51,0.00,,,0.00,0.000000,,2013-03-19 04:53:00,